Время (UTC), дата Ветер
(°,м/с) 
Видим.   Явления Облачность Т
(°С)
Тd
(°С)
f(%) Тe
(°С)
Pmin
(гПа)
dP
(гПа)
Po
(мм)
O2
(г/м3)
Тmin Tmax R s Состояние
почвы
00 01.06.10 240 (ЮЗ) 10 км    ясно 
+19.7 +17.9 89 +35  1011.7  -0.2  756  280           
03 01.06.10 тихо ()   10 км    10/0 средняя, верхняя 
[Ac trans|Ci fib]
+19.1 +17.1 88 +31  1012.1  0.4  757  281           
06 01.06.10 210 (ЮЗ) 10 км    10/0 средняя, верхняя 
[Ac und|Cc]
+23.7 +14.4 56 +31  1012.5  0.4  757  278  +18.5         
09 01.06.10 320 (СЗ) 10 км    9/5 1000 м средняя, верхняя 
[Sc|Ac und|Ci]
+26.4 +14.8 49 +34  1012.5  757  275           
12 01.06.10 010 (С) 10 км    10/8 1000 м средняя 
[Sc|Ac und]
+26.6 +14 46 +33  1012.6  0.1  757  275           
15 01.06.10 060 (СВ) 10 км    8/3 1000 м средняя 
[Sc|Ac trans]
+26.2 +16.5 55 +37  1011.7  -0.9  756  275           
18 01.06.10 040 (СВ) 10 км    10/0 верхняя 
[Ci]
+23.8 +19.1 75 +40  1010.4  -1.3  755  275    +27.9       
21 01.06.10 050 (СВ) 10 км    ясно 
+21.1 +19.2 89 +38  1009  -1.4  754  278           
00 02.06.10 040 (СВ) 10 км    ясно 
+19 +16.4 85 +32  1008.9  -0.1  754  281           
03 02.06.10 080 (В) 10 км    10/0 средняя, верхняя 
[Ac trans|Ci]
+19.2 +16 82 +30  1008.2  -0.7  754  280           
06 02.06.10 120 (ЮВ) 10 км    8/0 верхняя 
[Ci fib]
+23.5 +16.9 66 +35  1007.6  -0.5  753  276  +18.2         
09 02.06.10 070 (В) 10 км    10/0 средняя, верхняя 
[Ac trans|Cs]
+29.7 +19.3 54 +47  1006.9  -0.7  753  269           
12 02.06.10 080 (В) 10 км    9/0 средняя, верхняя 
[Ac cast|Ci fib]
+31.8 +18.2 44 +46  1005.6  -1.3  752  267           
15 02.06.10 070 (В) 10 км    6/0 средняя, верхняя 
[Ac cast|Ci fib]
+29.5 +19.2 54 +46  1004.8  -0.8  751  269           
18 02.06.10 100 (В) 10 км    9/8 1000 м кучево-дожд., средняя 
[Cb cap|Ac cast]
+26.4 +19 64 +43  1004.4  -0.4  751  271    +32       
21 02.06.10 070 (В) 10 км  {гроза, ливн. осадки}  4/3 1000 м средняя 
[Sc|Ac trans]
+25 +18.4 67 +40  1003.5  -0.9  750  273           
00 03.06.10 090 (В) 10 км  {гроза, ливн. осадки}  5/3 1000 м кучево-дожд., средняя 
[Cb cap|Ac trans]
+23.2 +18.3 74 +38  1004.2  0.7  751  275           
03 03.06.10 240 (ЮЗ) 10 км    10/10 1000 м кучево-дожд. 
[Cb cap]
+23.8 +17.9 70 +38  1005.1  0.9  751  274           
06 03.06.10 230 (ЮЗ) 10 км    9/9 1000 м кучево-дожд., средняя 
[Cb cap|Ac und]
+27.8 +16.2 49 +39  1007  1.9  753  272  +21.8    0.0     
09 03.06.10 230 (ЮЗ) 10 км    10/0 средняя, верхняя 
[Ac cast|Ci fib]
+27.7 +18.1 56 +42  1009.2  2.1  754  272           
12 03.06.10 230 (ЮЗ) 10 км    10/0 средняя, верхняя 
[Ac cast|Ci fib]
+29 +17.5 50 +42  1009.9  0.8  755  271           
15 03.06.10 270 (З) 10 км    9/0 средняя 
[Ac trans]
+27.6 +18.2 57 +42  1009.8  -0.2  755  272           
18 03.06.10 260 (З) 10 км    8/0 средняя 
[Ac trans]
+25.9 +20.4 72 +45  1010.2  0.4  755  273    +29.4       
21 03.06.10 330 (СЗ) 10 км    6/0 верхняя 
[Cs]
+22.8 +20.2 85 +42  1010.4  0.2  755  276           
00 04.06.10 270 (З) 10 км    10/10 1000 м кучево-дожд. 
[Cb cap]
+22.2 +17.5 75 +35  1011.3  0.9  756  278           
03 04.06.10 280 (З) 10 км    10/10 1000 м кучево-дожд. 
[Cb cap]
+21.9 +18.1 79 +36  1012.1  0.8  757  278           
06 04.06.10 120 (ЮВ) 10 км    9/5 1000 м кучево-дожд., средняя 
[Cb cap|Ac trans]
+23.1 +18.4 75 +38  1013.1  757  277  +21.9         
09 04.06.10 250 (З) 10 км    9/8 1000 м кучево-дожд., средняя 
[Cb cap|Ac trans]
+26.2 +17.8 60 +40  1013.4  0.3  758  275           
12 04.06.10 320 (СЗ) 10 км    8/3 1000 м кучево-дожд., средняя 
[Cb cap|Ac trans]
+27 +17.8 57 +41  1013.5  0.1  758  274           
15 04.06.10 030 (СВ) 10 км    9/8 1000 м кучево-дожд., средняя 
[Cb cap|Ac trans]
+26.4 +19 64 +42  1013.5  758  274           
18 04.06.10 тихо ()   10 км    8/5 1000 м средняя, верхняя 
[Sc diur, vesp|Ac trans|Ci fib]
+25 +19.1 70 +41  1013.8  0.3  758  275    +27.8       
21 04.06.10 020 (С) 10 км    6/0 средняя, верхняя 
[Ac trans|Ci fib]
+22.5 +18.2 77 +37  1014.4  0.6  758  278           
00 05.06.10 тихо ()   10 км    5/0 верхняя 
[Ci fib]
+20.3 +18.2 88 +35  1014.7  0.3  758  280           
03 05.06.10 360 (С) 10 км    8/5 1000 м верхняя 
[Sc|Ci fib]
+20.3 +17.5 84 +33  1015.4  0.7  759  281           
06 05.06.10 350 (С) 10 км    10/0 средняя, верхняя 
[Ac trans|Cc]
+23.8 +16.6 64 +35  1015.6  0.2  759  278  +19.6         
09 05.06.10 020 (С) 10 км    8/4 1000 м верхняя 
[Cu med, cong|Ci fib]
+28 +17 51 +40  1015  -0.6  759  274           
12 05.06.10 030 (СВ) 10 км    6/6 1000 м 
[Cu med, cong]
+30.1 +16.2 43 +41  1014  -0.9  758  272           
15 05.06.10 020 (С) 10 км    3/3 1000 м 
[Cu hum]
+29.5 +12.3 35 +34  1013.5  -0.5  758  273           
18 05.06.10 350 (С) 10 км    6/6 1000 м 
[Sc]
+25.6 +13.3 47 +31  1014.1  0.5  758  277    +30.6       
21 05.06.10 340 (С) 10 км    3/0 средняя 
[Ac trans]
+22.2 +15.1 64 +31  1014.2  0.1  758  279           
00 06.06.10 030 (СВ) 10 км    8/8 1000 м 
[Sc]
+20.6 +14.2 67 +28  1014.1  -0.1  758  281           
03 06.06.10 040 (СВ) 10 км    8/6 1000 м средняя 
[Sc|Ac und]
+20.5 +13.5 64 +26  1013.6  -0.5  758  281           
06 06.06.10 040 (СВ) 10 км    5/0 средняя, верхняя 
[Ac cast|Cc]
+25.4 +16.5 58 +36  1013  -0.6  757  276  +20         
09 06.06.10 070 (В) 10 км    8/3 1000 м средняя, верхняя 
[Cu hum|Ac trans|Ci fib]
+29.5 +15.4 42 +39  1012  -0.9  757  272           
12 06.06.10 060 (СВ) 10 км    9/5 1000 м средняя 
[Sc diur, vesp|Ac trans]
+29.6 +15.5 42 +39  1010.5  -1.5  755  271           
15 06.06.10 060 (СВ) 10 км    9/9 1000 м кучево-дожд. 
[Cb cap]
+28 +17.6 53 +41  1009  -1.6  754  272           
18 06.06.10 060 (СВ) 10 км    9/9 1000 м кучево-дожд. 
[Cb cap]
+26.8 +17 55 +39  1009.4  0.4  755  273    +30.9       
21 06.06.10 070 (В) 10 км    10/10 1000 м кучево-дожд. 
[Cb cap]
+24.5 +17.3 64 +37  1008.8  -0.6  754  275           
00 07.06.10 060 (СВ) 10 км    10/6 1000 м средняя, верхняя 
[Ac trans|Ci fib]
+22.6 +17.1 71 +35  1008  -0.8  753  277           
03 07.06.10 070 (В) 10 км    10/10 1000 м кучево-дожд. 
[Cb cap]
+21.8 +15.9 69 +32  1007.6  -0.4  753  278           
06 07.06.10 070 (В) 10 км    10/8 1000 м кучево-дожд., средняя 
[Cb cap|Ac und]
+22.4 +14.8 62 +31  1008.2  0.6  754  278  +21.6         
09 07.06.10 050 (СВ) 10 км  в посл. час ливневой дождь  10/10 1000 м кучево-дожд. 
[Cb cap|Ac und]
+21.5 +17.3 77 +34  1007.5  -0.7  753  277           
12 07.06.10 060 (СВ) 10 км  слаб. ливневой дождь  9/6 1000 м кучево-дожд., средняя 
[Cb cap|Ac trans]
+24.2 +15.6 59 +34  1006.9  -0.5  753  275           
15 07.06.10 030 (СВ) 10 км  {ливн. осадки}  10/8 1000 м кучево-дожд., средняя 
[Cb cap|Ac und]
+24.2 +16 60 +35  1006.7  -0.2  753  275           
18 07.06.10 080 (В) 10 км  {ливн. осадки}  10/10 1000 м кучево-дожд. 
[Cb cap]
+23.1 +16 64 +33  1007.1  0.3  753  276    +25.7     
21 07.06.10 090 (В) 10 км    10/10 1000 м 
[Sc]
+22.6 +13.6 57 +29  1007.3  0.2  753  278           
00 08.06.10 050 (СВ) 4000 м  гроза, ливневой дождь  10/10 1000 м кучево-дожд. 
[Cb cap]
+19 +15.6 81 +30  1007.7  0.4  753  280           
03 08.06.10 060 (СВ) 4000 м  слаб. ливневой дождь{гроза}  10/10 1000 м кучево-дожд. 
[Cb cap]
+17.4 +16 91 +29  1008.9  1.1  754  282           
06 08.06.10 090 (В) 10 км  {гроза, ливн. осадки}  10/3 1000 м кучево-дожд., средняя, верхняя 
[Cb cap|Ac cast|Cc]
+21.4 +15 67 +30  1009  0.2  754  279  +17.4    10     
09 08.06.10 120 (ЮВ) 10 км    10/1 1000 м верхняя 
[Cu med, cong|Ci ing]
+25.8 +14.2 49 +33  1009.1  0.1  754  275           
12 08.06.10 150 (ЮВ) 10 км    10/3 1000 м кучево-дожд., средняя, верхняя 
[Cb cap|Ac trans|Ci fib]
+27.7 +14 43 +35  1008.7  -0.4  754  273           
15 08.06.10 140 (ЮВ) 10 км    10/3 1000 м кучево-дожд., верхняя 
[Cb cap|Ci fib]
+24.3 +13.9 52 +31  1009.5  0.8  755  276           
18 08.06.10 090 (В) 10 км    10/6 1000 м средняя, верхняя 
[Sc|Ac trans|Ci fib]
+21.8 +14.9 65 +30  1010.5  755  279    +28.2     
21 08.06.10 020 (С) 10 км    6/4 1000 м средняя, верхняя 
[Sc|Ac trans|Ci fib]
+19.5 +14.5 73 +29  1010.7  0.2  755  281           
00 09.06.10 050 (СВ) 10 км    10/6 1000 м средняя 
[Sc|Ac und]
+19 +13.4 70 +27  1010.9  0.2  756  282           
03 09.06.10 060 (СВ) 10 км    10/5 1000 м кучево-дожд., средняя, верхняя 
[Cb cap|Ac trans|Ci fib]
+18 +12.4 70 +23  1011.5  0.5  756  283           
06 09.06.10 090 (В) 10 км    9/8 1000 м средняя 
[Sc diur, vesp|Ac cast]
+20.5 +12.5 60 +25  1011.9  0.5  756  281  +18         
09 09.06.10 100 (В) 10 км    9/6 1000 м средняя, верхняя 
[Cu med, cong|Ac cast|Cc]
+26 +11 39 +28  1011.8  -0.1  756  276           
12 09.06.10 060 (СВ) 10 км    9/4 1000 м средняя, верхняя 
[Cu med, cong|Ac trans|Cc]
+27.8 +9.4 32 +28  1011.2  -0.6  756  275           
15 09.06.10 060 (СВ) 10 км    3/3 1000 м средняя 
[Cu med, cong|Ac trans]
+29.5 +11.7 33 +33  1010.8  -0.3  756  273           
18 09.06.10 040 (СВ) 10 км    1/0 средняя 
[Ac trans]
+23.6 +15.3 60 +33  1011.7  0.8  756  277    +29.9       
21 09.06.10 060 (СВ) 10 км    ясно 
+20.4 +13.6 65 +27  1012  0.3  756  281           
00 10.06.10 030 (СВ) 10 км    ясно 
+18.2 +13.4 74 +26  1012.1  756  283           
03 10.06.10 050 (СВ) 10 км    ясно 
+17.7 +12.9 73 +24  1012.4  0.3  757  284           
06 10.06.10 060 (СВ) 10 км    ясно 
+24.8 +15.4 56 +34  1012.5  0.2  757  276  +17         
09 10.06.10 060 (СВ) 10 км    ясно 
+31 +12 31 +35  1012.2  -0.2  757  272           
12 10.06.10 030 (СВ) 27  10 км    1/0 
+10.6   1011.5  -0.7  756             
15 10.06.10 040 (СВ) 10 км    ясно 
+31.7 +11.9 30 +35  1011.1  -0.4  756  271           
18 10.06.10 040 (СВ) 10 км    ясно 
+26.9 +12.9 42 +32  1011.2  756  275    +32.8       
21 10.06.10 030 (СВ) 10 км    ясно 
+23 +12.9 53 +28  1011.7  0.5  756  279           
00 11.06.10 080 (В) 10 км    ясно 
+20.6 +13 62 +26  1011.5  -0.2  756  281           
03 11.06.10 090 (В) 10 км    ясно 
+20.1 +13.1 64 +25  1011.9  0.4  756  281           
06 11.06.10 050 (СВ) 10 км    ясно 
+26.4 +16 53 +37  1012.1  0.2  757  275  +19.5         
09 11.06.10 100 (В) 10 км    3/0 средняя, верхняя 
[Ac cast|Cc]
+31.1 +15.2 38 +40  1011.8  -0.2  756  271           
12 11.06.10 060 (СВ) 10 км    4/3 1000 м верхняя 
[Cu hum|Cc]
+34.3 +12.7 27 +39  1010.9  -0.9  756  268           
15 11.06.10 060 (СВ) 10 км    9/5 1000 м средняя, верхняя 
[Cu med, cong|Ac und|Ci ing]
+34 +13.9 30 +41  1010.3  -0.6  755  268           
18 11.06.10 070 (В) 10 км    10/6 1000 м средняя, верхняя 
[Sc|Ac trans|Ci]
+29.6 +13.6 38 +36  1010.7  0.4  756  272    +34.7       
21 11.06.10 060 (СВ) 10 км    4/0 средняя, верхняя 
[Ac trans|Ci fib]
+25.2 +15.9 56 +35  1011.2  0.4  756  275           
00 12.06.10 220 (ЮЗ) 10 км    ясно 
+22.3 +18.7 80 +38  1012.1  0.9  757  277           
03 12.06.10 тихо ()   10 км    4/0 верхняя 
[Ci]
+22.6 +20.3 87 +42  1012.3  0.2  757  277           
06 12.06.10 080 (В) 10 км    4/0 верхняя 
[Ci fib]
+26.8 +19.4 64 +44  1013.1  0.8  757  273  +22         
09 12.06.10 120 (ЮВ) 10 км    6/0 верхняя 
[Ci fib]
+32.2 +18.9 45 +48  1012.5  -0.5  757  269           
12 12.06.10 130 (ЮВ) 10 км    5/0 верхняя 
[Ci fib]
+33.6 +16.2 35 +44  1011.9  -0.6  756  268           
15 12.06.10 070 (В) 10 км    4/0 верхняя 
[Ci fib]
+34.1 +13.6 29 +40  1011  -0.9  756  268           
18 12.06.10 090 (В) 10 км    ясно 
+29.2 +13.4 38 +35  1011.5  0.5  756  273    +35.1       
21 12.06.10 тихо ()   10 км    ясно 
+25.7 +16.1 55 +36  1012.6  757  275           
00 13.06.10 200 (Ю) 10 км    ясно 
+23.5 +20.8 85 +44  1013.2  0.6  757  276           
03 13.06.10 220 (ЮЗ) 10 км    ясно 
+23.2 +19.1 78 +39  1013.4  0.2  758  277           
06 13.06.10 120 (ЮВ) 10 км    ясно 
+27.9 +19.5 60 +45  1013.3  758  272  +23         
09 13.06.10 250 (З) 10 км    ясно 
+32.5 +16.9 39 +44  1012.8  -0.5  757  269           
12 13.06.10 160 (Ю) 10 км    ясно 
+34.4 +17.4 36 +47  1012.4  -0.4  757  267           
15 13.06.10 240 (ЮЗ) 10 км    ясно 
+34 +17.4 37 +47  1010.9  -1.5  756  267           
18 13.06.10 240 (ЮЗ) 10 км    ясно 
+30.2 +16.3 43 +41  1011.4  0.5  756  271    +35       
21 13.06.10 330 (СЗ) 10 км    ясно 
+25.7 +21 75 +46  1012.8  1.3  757  274           
00 14.06.10 310 (СЗ) 10 км    ясно 
+24.4 +20.8 80 +45  1013.4  0.6  758  275           
03 14.06.10 220 (ЮЗ) 10 км    10/5 1000 м кучево-дожд., средняя, верхняя 
[Cb cap|Ac trans|Ci fib]
+23.2 +21.4 90 +45  1013.4  758  276           
06 14.06.10 060 (СВ) 10 км    5/0 верхняя 
[Ci fib]
+27.6 +21.2 68 +49  1013.1  -0.3  757  272  +23         
09 14.06.10 150 (ЮВ) 10 км    10/0 средняя, верхняя 
[Ac cast|Cs]
+32.4 +20.1 48 +51  1012.9  -0.1  757  268           
12 14.06.10 280 (З) 10 км    4/0 верхняя 
[Ci fib]
+36.5 +14.1 26 +43  1011.9  -1  756  266           
15 14.06.10 080 (В) 10 км    10/0 средняя, верхняя 
[Ac trans|Ci]
+35.7 +15.6 30 +45  1010.2  -1.7  755  266           
18 14.06.10 040 (СВ) 10 км    8/0 средняя, верхняя 
[Ac trans|Ci fib]
+31.4 +18.4 46 +46  1010.2  755  269    +37.1       
21 14.06.10 040 (СВ) 10 км    10/0 средняя, верхняя 
[Ac trans|Ci fib]
+27.6 +20 63 +46  1009.8  -0.5  755  271           
00 15.06.10 120 (ЮВ) 10 км    10/0 средняя, верхняя 
[Ac trans|Ci fib]
+25.2 +19.3 70 +42  1009.5    755  274           
03 15.06.10 040 (СВ) 10 км    10/3 1000 м средняя, верхняя 
[Sc|Ac trans|Ci fib]
+24.7 +18.9 70 +41  1009.5  755  274           
06 15.06.10 070 (В) 10 км    10/0 средняя, верхняя 
[Ac cast|Ci]
+29.2 +18.7 53 +45  1008.7  -0.7  754  270  +24.4         
09 15.06.10 040 (СВ) 10 км    10/3 1000 м средняя, верхняя 
[Cu med, cong|Ac cast|Ci fib]
+33 +20.1 47 +52  1008.5  -0.2  754  266           
12 15.06.10 270 (З) 10 км    10/3 1000 м средняя, верхняя 
[Sc diur, vesp|Ac cast|Ci fib]
+33 +20.1 47 +52  1008.3  -0.2  754  266           
15 15.06.10 010 (С) 10 км    4/0 средняя, верхняя 
[Ac cast|Ci fib]
+36 +18.1 35 +50  1007.2  -1  753  264           
18 15.06.10 330 (СЗ) 10 км    10/3 1000 м средняя, верхняя 
[Sc|Ac cast|Ci fib]
+32 +21.2 53 +53  1008.6  1.3  754  267    +36.1       
21 15.06.10 250 (З) 10 км  зарница  10/4 1000 м кучево-дожд., средняя 
[Cb cap|Ac und]
+26.7 +22.6 78 +51  1010  1.3  755  271           
00 16.06.10 290 (З) 4000 м  гроза, ливневой дождь  10/10 1000 м кучево-дожд. 
[Cb cap]
+24.6 +18.7 70 +40  1011.7  1.7  756  275           
03 16.06.10 250 (З) 4000 м  слаб. ливневой дождь, в посл. час гроза  10/10 1000 м кучево-дожд. 
[Cb cap]
+21.8 +20 90 +40  1011.4  -0.3  756  277           
06 16.06.10 110 (В) 10 км  {гроза, ливн. осадки}  8/4 1000 м кучево-дожд., средняя, верхняя 
[Cb cap|Ac cast|Ci ing]
+25.2 +19.1 69 +42  1012.3  0.9  757  275  +21.8       
09 16.06.10 200 (Ю) 10 км    8/0 верхняя 
[Cc]
+29.4 +17.4 48 +42  1011.4  -0.8  756  271           
12 16.06.10 200 (Ю) 10 км    10/3 1000 м верхняя 
[Cu hum|Ci]
+30.8 +17.3 44 +43  1010.7  -0.7  756  270           
15 16.06.10 350 (С) 10 км    10/5 1000 м средняя, верхняя 
[Cu med, cong|Ac trans|Ci]
+31.4 +19.2 48 +48  1009.5  -1.2  755  268           
18 16.06.10 350 (С) 10 км    10/0 средняя, верхняя 
[Ac trans|Cs]
+28 +21.7 69 +50  1010.2  0.7  755  270    +31.9  0.3     
21 16.06.10 320 (СЗ) 10 км    4/0 верхняя 
[Ci fib]
+25.4 +22.8 86 +51  1010.5  0.2  755  272           
00 17.06.10 330 (СЗ) 10 км    4/0 верхняя 
[Ci fib]
+24 +22.8 93 +49  1009.8  -0.7  755  273           
03 17.06.10 350 (С) 10 км    8/4 1000 м средняя, верхняя 
[Cu med, cong|Ac cast|Cc]
+23.3 +20.2 83 +42  1009.8  755  275           
06 17.06.10 080 (В) 10 км    3/0 средняя, верхняя 
[Ac cast|Ci fib]
+26.4 +19.5 66 +44  1009.9  0.1  755  273  +23         
09 17.06.10 020 (С) 10 км    9/8 1000 м кучево-дожд., средняя 
[Cb cap|Ac trans]
+30.3 +19 51 +47  1009  -0.8  754  269           
12 17.06.10 310 (СЗ) 10 км    8/8 1000 м кучево-дожд. 
[Cb cap]
+31.5 +18.1 45 +46  1008  -1  754  268           
15 17.06.10 350 (С) 10 км    6/4 1000 м кучево-дожд., средняя, верхняя 
[Cb cap|Ac trans|Ci fib]
+30.3 +15.2 40 +39  1008  754  270           
18 17.06.10 160 (Ю) 10 км    10/0 средняя, верхняя 
[Ac trans|Ci fib]
+24.4 +19.7 75 +42  1009.5  1.4  755  274    +31.8       
21 17.06.10 350 (С) 10 км    8/0 средняя, верхняя 
[Ac trans|Ci fib]
+22.5 +13.7 57 +29  1010  0.5  755  278           
00 18.06.10 360 (С) 10 км    ?/? 1000 м 
[]
+20 +10.4 54 +22  1010.6  0.6  755  282           
03 18.06.10 040 (СВ) 10 км    10/10 1000 м кучево-дожд. 
[Cb cap]
+19.1 +11.2 60 +23  1010.5  -0.1  755  282           
06 18.06.10 040 (СВ) 10 км    8/5 1000 м кучево-дожд., средняя, верхняя 
[Cb cap|Ac trans|Cc]
+20.4 +11.8 58 +24  1011  0.5  756  281  +18.9         
09 18.06.10 040 (СВ) 10 км    6/3 1000 м средняя, верхняя 
[Sc|Ac trans|Cc]
+24 +12.9 50 +29  1010.7  -0.3  755  277           
12 18.06.10 060 (СВ) 10 км    10/4 1000 м кучево-дожд., средняя, верхняя 
[Cb cap|Ac trans|Ci fib]
+26.9 +12 40 +31  1010.4  -0.3  755  275           
15 18.06.10 050 (СВ) 10 км    5/3 1000 м верхняя 
[Sc|Ci fib]
+26.1 +12.5 43 +31  1010.1  -0.3  755  275           
18 18.06.10 040 (СВ) 10 км    3/3 1000 м 
[Sc]
+22.3 +12.7 55 +27  1011  0.9  756  279    +27       
21 18.06.10 070 (В) 10 км    6/6 1000 м 
[Sc]
+19.8 +13.5 67 +27  1011.1  0.1  756  281           
00 19.06.10 070 (В) 10 км    10/6 600 м средняя 
[Sc|Ac und]
+19.6 +13.7 69 +27  1010.9  -0.2  756  281           
03 19.06.10 060 (СВ) 10 км    4/3 1000 м верхняя 
[Sc|Ci fib]
+18.1 +13.7 75 +26  1010.8  -0.2  755  283           
06 19.06.10 120 (ЮВ) 10 км    4/0 средняя 
[Ac cast]
+23.7 +13.4 52 +30  1010.4  -0.3  755  277  +17.8         
09 19.06.10 090 (В) 10 км    3/1 1000 м средняя 
[Cu hum|Ac lent]
+27.6 +13.6 42 +34  1009.9  -0.5  755  274           
12 19.06.10 090 (В) 10 км    6/6 1000 м 
[Cu med, cong]
+29.4 +14.2 39 +37  1008.8  -1  754  272           
15 19.06.10 050 (СВ) 10 км    3/3 1000 м 
[Sc diur, vesp]
+29.5 +15 41 +38  1008.1  -0.7  754  271           
18 19.06.10 060 (СВ) 10 км    1/0 средняя 
[Ac trans]
+26.2 +12.2 42 +30  1008.4  0.2  754  275    +30.4       
21 19.06.10 070 (В) 10 км    3/0 средняя 
[Ac trans]
+24.4 +11.5 44 +27  1007.4  -0.9  753  276           
00 20.06.10 060 (СВ) 10 км    ясно 
+21.5 +13.9 62 +28  1007.5  753  279           
03 20.06.10 100 (В) 10 км    8/3 1000 м верхняя 
[Sc|Ci]
+22 +14.3 62 +29  1007.6  0.1  753  278           
06 20.06.10 110 (В) 10 км    8/0 средняя, верхняя 
[Ac cast|Ci]
+25.7 +18.5 64 +41  1007.9  0.4  753  273  +21.2         
09 20.06.10 120 (ЮВ) 10 км    6/3 1000 м верхняя 
[Cu hum|Cc]
+29.5 +17 47 +42  1007.5  -0.4  753  270           
12 20.06.10 080 (В) 10 км    8/3 1000 м верхняя 
[Cu med, cong|Ci fib]
+31.7 +16.9 41 +44  1006.9  -0.6  753  268           
15 20.06.10 120 (ЮВ) 10 км    10/5 1000 м кучево-дожд., средняя, верхняя 
[Cb cap|Ac trans|Ci fib]
+30.2 +17.5 47 +43  1006.7  -0.2  753  269           
18 20.06.10 100 (В) 10 км    10/5 1000 м средняя, верхняя 
[Sc diur, vesp|Ac trans|Ci fib]
+28.2 +17.1 51 +41  1007.1  0.4  753  271    +32.3       
21 20.06.10 080 (В) 10 км    5/0 верхняя 
[Ci fib]
+24.7 +12.8 47 +30  1006.7  -0.4  753  276           
00 21.06.10 110 (В) 10 км    6/0 средняя, верхняя 
[Ac trans|Ci fib]
+23.4 +14.7 58 +31  1007.1  0.3  753  276           
03 21.06.10 110 (В) 10 км    10/5 1000 м кучево-дожд., средняя, верхняя 
[Cb cap|Ac trans|Ci fib]
+23 +17.9 73 +37  1007.3  0.2  753  276           
06 21.06.10 090 (В) 10 км    9/9 1000 м кучево-дожд. 
[Cb cap]
+23.3 +18.2 73 +38  1009.1  1.8  754  276  +22.9         
09 21.06.10 090 (В) 10 км  слаб. ливневой дождь  10/10 1000 м кучево-дожд. 
[Cb cap]
+24.6 +19.2 72 +41  1009.9  0.8  755  275           
12 21.06.10 240 (ЮЗ) 10 км  в посл. час гроза{ливн. осадки}  10/10 1000 м кучево-дожд. 
[Cb cap]
+22.3 +17.8 76 +36  1010  0.1  755  277           
15 21.06.10 060 (СВ) 4000 м  гроза, ливневой дождь  10/10 1000 м кучево-дожд. 
[Cb cap]
+21.3 +20.1 93 +40  1009.1  -0.9  754  277           
18 21.06.10 150 (ЮВ) 10 км  в посл. час ливневой дождь{гроза}  9/8 1000 м средняя 
[Sc|Ac trans]
+20.8 +19.2 91 +37  1009.1  754  278    +25.3     
21 21.06.10 090 (В) 10 км    6/0 средняя 
[Ac cast]
+20 +19 94 +36  1008.6  -0.5  754  279           
00 22.06.10 100 (В) 4000 м  дымка  ясно 
+19.8 +18.9 95 +37  1007.5  -1.1  753  278           
03 22.06.10 150 (ЮВ) 10 км    6/0 средняя 
[Ac cast]
+20.2 +18.7 91 +36  1007.3  -0.2  753  278           
06 22.06.10 130 (ЮВ) 10 км    6/0 средняя, верхняя 
[Ac trans|Ci fib]
+24.2 +17.5 66 +37  1006.9  -0.3  753  275  +19.4       
09 22.06.10 070 (В) 10 км    3/1 1000 м верхняя 
[Cu med, cong|Ci fib]
+27.6 +19 59 +44  1005.8  -1.1  752  271           
12 22.06.10 060 (СВ) 10 км  гроза без осадков  9/9 1000 м кучево-дожд. 
[Cb cap]
+28.4 +15 44 +37  1004.8  -1  751  271           
15 22.06.10 100 (В) 10 км  в посл. час ливневой дождь{гроза}  6/0 средняя, верхняя 
[Ac trans|Ci fib]
+22.7 +17.6 73 +36  1004.6  -0.3  751  275           
18 22.06.10 020 (С) 10 км  {гроза, ливн. осадки}  3/0 верхняя 
[Ci fib]
+21.4 +17 76 +34  1004.4    751  277    +29.6  0.4     
21 22.06.10 060 (СВ) 10 км    4/0 верхняя 
[Ci fib]
+19.6 +16.6 83 +33  1003.7  -0.7  750  278           
00 23.06.10 080 (В) 10 км    ясно 
+18.8 +16.9 89 +32  1003  -0.8  750  279           
03 23.06.10 190 (Ю) 2000 м    9/9 600 м 
[St]
+19.4 +16.4 83 +32  1002.3  -0.6  749  278           
06 23.06.10 120 (ЮВ) 10 км    4/3 50 м средняя 
[Cu hum|Ac cast]
+23 +18.9 78 +39  1002.4  0.2  749  274  +18.6         
09 23.06.10 150 (ЮВ) 10 км    1/0 верхняя 
[Ci fib]
+29.2 +17.7 50 +43  1002  -0.4  749  269           
12 23.06.10 150 (ЮВ) 10 км    8/6 1000 м верхняя 
[Cu med, cong|Ci ing]
+32.5 +14.9 35 +41  1001.1  -0.9  748  266           
15 23.06.10 330 (СЗ) 10 км  {гроза, ливн. осадки}  10/10 1000 м кучево-дожд. 
[Cb cap]
+27 +18.6 60 +43  1001.3  0.2  749  270           
18 23.06.10 050 (СВ) 10 км  {гроза, ливн. осадки}  6/4 1000 м верхняя 
[Sc|Ci ing]
+21.9 +13.2 58 +28  1001.3  -0.1  748  277    +32.7  0.1     
21 23.06.10 060 (СВ) 10 км    8/5 1000 м средняя, верхняя 
[Sc|Ac cast|Cc]
+20.8 +14.3 66 +28  999.5  -1.8  747  277           
00 24.06.10 тихо ()   10 км  зарница  8/6 1000 м кучево-дожд., средняя 
[Cb cap|Ac und]
+21.1 +15.6 71 +31  999.5  747  276           
03 24.06.10 230 (ЮЗ) 10 км    10/6 1000 м средняя 
[Sc|Ac und]
+20.7 +15.9 74 +31  999.5  747  276           
06 24.06.10 090 (В) 10 км    10/4 1000 м кучево-дожд., средняя, верхняя 
[Cb cap|Ac trans|Cc]
+22.8 +16.6 68 +34  999.4  -0.1  747  274  +20         
09 24.06.10 110 (В) 10 км    8/3 1000 м кучево-дожд., средняя, верхняя 
[Cb cap|Ac trans|Ci fib]
+25.6 +15.9 55 +36  999.3  747  272           
12 24.06.10 150 (ЮВ) 10 км  слаб. ливневой дождь  10/8 1000 м кучево-дожд., средняя, верхняя 
[Cb cap|Ac trans|Ci fib]
+27 +17.3 55 +40  999.8  0.5  747  270           
15 24.06.10 240 (ЮЗ) 10 км  слаб. ливневой дождь{гроза}  10/6 1000 м кучево-дожд., средняя 
[Cb cap|Ac und]
+19.6 +17.1 85 +34  1000.5  0.6  748  277           
18 24.06.10 тихо ()   10 км  {гроза, ливн. осадки}  10/8 1000 м кучево-дожд., средняя 
[Cb cap|Ac und]
+20.5 +17.3 82 +33  1002.9  2.4  750  277    +28.2     
21 24.06.10 230 (ЮЗ) 10 км    8/4 1000 м кучево-дожд., верхняя 
[Cb cap|Ci fib]
+21.1 +17 77 +33  1002.9  750  277           
00 25.06.10 280 (З) 10 км    10/6 1000 м кучево-дожд., верхняя 
[Cb cap|Ci fib]
+19.2 +17.6 90 +34  1003  0.1  750  278           
03 25.06.10 110 (В) 10 км    10/4 1000 м средняя, верхняя 
[Cu med, cong|Ac trans|Ci fib]
+19.2 +16.5 84 +31  1003.2  0.2  750  279           
06 25.06.10 120 (ЮВ) 10 км    10/5 1000 м кучево-дожд., средняя, верхняя 
[Cb cap|Ac trans|Ci ing]
+22.8 +16.9 69 +35  1003.8  0.6  750  275  +18.6    0.0     
09 25.06.10 110 (В) 10 км    10/6 1000 м средняя, верхняя 
[Cu med, cong|Ac trans|Ci fib]
+26 +16.9 57 +38  1004.1  0.4  751  272           
12 25.06.10 210 (ЮЗ) 10 км  в посл. час ливневой дождь  9/8 1000 м кучево-дожд., средняя 
[Cb cap|Ac trans]
+23 +19.6 81 +41  1005.7  1.6  752  275           
15 25.06.10 220 (ЮЗ) 10 км  слаб. ливневой дождь  9/8 1000 м кучево-дожд., средняя 
[Cb cap|Ac trans]
+21.8 +18.8 83 +38  1006.6  0.8  752  276           
18 25.06.10 150 (ЮВ) 10 км  в посл. час ливневой дождь  10/10 1000 м кучево-дожд. 
[Cb cap]
+20.9 +18.5 86 +36  1007.6  753  278    +26.4  12     
21 25.06.10 220 (ЮЗ) 10 км    10/0 средняя, верхняя 
[Ac trans|Ci fib]
+20.3 +18.1 87 +35  1007.7  0.1  753  278           
00 26.06.10 160 (Ю) 10 км    9/0 верхняя 
[Ci fib]
+19.3 +18 92 +35  1007.9  0.2  753  279           
03 26.06.10 тихо ()   10 км    9/3 1000 м средняя, верхняя 
[Sc|Ac cast|Ci]
+18.5 +17.5 94 +32  1008.7  0.8  754  281           
06 26.06.10 010 (С) 10 км    8/4 1000 м средняя, верхняя 
[Cu med, cong|Ac cast|Cc]
+23.8 +17.7 69 +37  1008.7  754  275  +18.3    0.3     
09 26.06.10 060 (СВ) 10 км    9/9 1000 м кучево-дожд. 
[Cb cap]
+26.6 +17.7 58 +40  1008.2  -0.4  754  273           
12 26.06.10 080 (В) 10 км    10/8 1000 м верхняя 
[Cu med, cong|Ci fib]
+27.6 +15.1 46 +36  1007.7  -0.5  753  273           
15 26.06.10 130 (ЮВ) 10 км    4/1 1000 м верхняя 
[Cu med, cong|Ci fib]
+28.9 +15.4 44 +38  1007.1  -0.6  753  271           
18 26.06.10 240 (ЮЗ) 10 км    10/0 средняя, верхняя 
[Ac trans|Ci fib]
+26.2 +16.1 54 +37  1007.4  0.3  753  273    +29.9       
21 26.06.10 250 (З) 10 км    10/0 средняя, верхняя 
[Ac trans|Ci fib]
+21.8 +19.7 88 +40  1008.1  0.6  754  276           
00 27.06.10 240 (ЮЗ) 10 км  зарница  10/10 1000 м кучево-дожд. 
[Cb cap]
+20.6 +19.5 93 +38  1009.2  1.1  754  278           
03 27.06.10 250 (З) 10 км  гроза без осадков  10/10 1000 м кучево-дожд. 
[Cb cap]
+20 +17.6 86 +33  1009.6  0.4  755  279           
06 27.06.10 210 (ЮЗ) 2000 м  гроза, ливневой дождь  10/10 200 м кучево-дожд. 
[Cb cap]
+20.3 +19.4 95 +37  1010.9  1.3  756  279  +19.8         
09 27.06.10 120 (ЮВ) 4000 м  ливневой дождь, в посл. час гроза  10/10 1000 м кучево-дожд. 
[Cb cap]
+20.7 +19.7 94 +38  1011.5  0.6  756  278           
12 27.06.10 260 (З) 4000 м  слаб. ливневой дождь  10/8 1000 м кучево-дожд., средняя, верхняя 
[Cb cap|Ac trans|Ci fib]
+22 +17.3 75 +35  1012.3  0.8  757  278           
15 27.06.10 тихо ()   10 км  {ливн. осадки}  8/5 1000 м кучево-дожд., средняя, верхняя 
[Cb cap|Ac trans|Ci fib]
+21.9 +18.4 81 +37  1011.8  -0.5  756  278           
18 27.06.10 тихо ()   10 км  {ливн. осадки}  5/3 1000 м верхняя 
[Sc diur, vesp|Ci fib]
+21.3 +19.1 87 +38  1012  0.2  756  278    +22.2  22     
21 27.06.10 тихо ()   10 км    ясно 
+19.4 +18.6 95 +35  1012.2  0.2  757  280           
00 28.06.10 тихо ()   4000 м  дымка  5/3 100 м верхняя 
[St|Ci fib]
+18.5 +18 97 +33  1012.2  757  281           
03 28.06.10 210 (ЮЗ) 10 км    10/4 1000 м кучево-дожд., верхняя 
[Cb cap|Ci fib]
+18 +17.7 98 +32  1012.6  0.3  757  282           
06 28.06.10 020 (С) 10 км  гроза без осадков  10/10 1000 м кучево-дожд. 
[Cb cap]
+22.1 +19.7 86 +40  1012.5  757  277  +17.8         
09 28.06.10 150 (ЮВ) 4000 м  гроза, ливневой дождь  10/10 600 м кучево-дожд. 
[Cb cap]
+20 +19.2 95 +37  1012.7  0.2  757  280           
12 28.06.10 320 (СЗ) 10 км  {гроза, ливн. осадки}  10/8 1000 м кучево-дожд., верхняя 
[Cb cap|Ci ing]
+22.6 +19.5 83 +40  1011.7  -1  756  277           
15 28.06.10 090 (В) 10 км  гроза без осадков  10/9 1000 м кучево-дожд., верхняя 
[Cb cap|Ci ing]
+22.5 +19.2 82 +39  1011.6  -0.1  756  277           
18 28.06.10 250 (З) 10 км  {гроза, ливн. осадки}  9/9 1000 м кучево-дожд. 
[Cb cap]
+21.5 +19.5 88 +39  1011.3  -0.3  756  278    +23.2     
21 28.06.10 220 (ЮЗ) 10 км    6/3 1000 м средняя 
[Sc|Ac trans]
+20.4 +19.5 95 +38  1010.8  -0.5  756  279           
00 29.06.10 160 (Ю) 10 км  гроза, ливневой дождь  10/10 1000 м кучево-дожд. 
[Cb cap]
+20.1 +19.3 95 +37  1010.2  -0.6  755  279           
03 29.06.10 350 (С) 4000 м  гроза, ливневой дождь  9/9 600 м кучево-дожд. 
[Cb cap]
+20 +19.4 96 +37  1009.1  -1.1  754  279           
06 29.06.10 240 (ЮЗ) 10 км  {гроза, ливн. осадки}  10/10 1000 м кучево-дожд. 
[Cb cap]
+20 +17.7 87 +33  1009.9  0.8  755  279  +19.8    16     
09 29.06.10 160 (Ю) 10 км    9/9 1000 м кучево-дожд., средняя 
[Cb cap|Ac trans]
+23 +18.2 74 +38  1008.9  -1  754  276           
12 29.06.10 210 (ЮЗ) 10 км    10/5 1000 м кучево-дожд., средняя 
[Cb cap|Ac trans]
+24.7 +18.1 67 +39  1008.8  -0.1  754  275           
15 29.06.10 210 (ЮЗ) 10 км  гроза без осадков{ливн. осадки}  10/8 1000 м кучево-дожд., средняя 
[Cb cap|Ac trans]
+22.1 +20.4 90 +41  1009.1  0.3  754  276           
18 29.06.10 160 (Ю) 10 км  {гроза, ливн. осадки}  3/0 средняя 
[Ac trans]
+20.4 +18.5 89 +36  1008.9  -0.2  754  278    +25.6     
21 29.06.10 240 (ЮЗ) 10 км    10/0 средняя, верхняя 
[Ac trans|Ci fib]
+19.3 +17.7 90 +35  1008.9  754  280           
00 30.06.10 230 (ЮЗ) 10 км    3/3 1000 м 
[Sc]
+19.1 +17.3 89 +33  1008.4  -0.5  754  280           
03 30.06.10 230 (ЮЗ) 10 км    9/9 1000 м кучево-дожд. 
[Cb cap]
+19.3 +17.5 89 +33  1008.5  0.1  754  280           
06 30.06.10 250 (З) 10 км    8/3 1000 м кучево-дожд., средняя, верхняя 
[Cb cap|Ac trans|Ci fib]
+22.8 +17.5 72 +36  1008.6  0.1  754  276  +19.1         
09 30.06.10 240 (ЮЗ) 10 км    10/5 1000 м кучево-дожд., верхняя 
[Cb cap|Ci fib]
+25.5 +16.6 58 +37  1009  0.4  754  274           
12 30.06.10 230 (ЮЗ) 1000 м  ливневой дождь  10/6 1000 м кучево-дожд., верхняя 
[Cb cap|Ci fib]
+21.6 +19.1 86 +38  1010.1  1.1  755  277           
15 30.06.10 210 (ЮЗ) 10 км    8/3 1000 м верхняя 
[Cu med, cong|Ci fib]
+25.9 +16.1 55 +36  1009.8  -0.3  755  274           
18 30.06.10 220 (ЮЗ) 10 км    8/3 1000 м верхняя 
[Sc diur, vesp|Ci fib]
+22.3 +15.7 66 +32  1010.2  0.4  755  278    +26.5     
21 30.06.10 190 (Ю) 10 км    ясно 
+20.5 +16.5 78 +32  1010.9  0.7  756  280           
00 01.07.10 180 (Ю) 10 км    3/0 верхняя 
[Ci fib]
+19.2 +17.6 90 +34  1010.6  -0.3  755  280           
03 01.07.10 140 (ЮВ) 10 км    10/3 1000 м верхняя 
[Sc|Ci fib]
+19.4 +17.7 90 +33  1010.5  -0.1  755  280           
06 01.07.10 210 (ЮЗ) 10 км    8/3 1000 м верхняя 
[Cu hum|Ci]
+24 +18.3 70 +39  1010.5  755  276  +18.2         
09 01.07.10 130 (ЮВ) 10 км    9/3 1000 м верхняя 
[Cu med, cong|Ci]
+26.6 +17 56 +39  1010  -0.5  755  274           
12 01.07.10 060 (СВ) 10 км    9/3 1000 м верхняя 
[Cu med, cong|Ci]
+28.4 +15.3 45 +37  1009.5  -0.5  755  272           
15 01.07.10 060 (СВ) 10 км    8/4 1000 м кучево-дожд., средняя, верхняя 
[Cb cap|Ac trans|Cc]
+28.7 +14.5 42 +36  1008.5  -0.9  754  272           
18 01.07.10 150 (ЮВ) 10 км    3/0 средняя, верхняя 
[Ac trans|Ci fib]
+24.6 +18.7 70 +40  1009  0.4  754  274    +29.5       
21 01.07.10 050 (СВ) 10 км    ясно 
+21.4 +19.2 87 +38  1009.1  0.1  754  277           
00 02.07.10 050 (СВ) 10 км    6/0 верхняя 
[Ci]
+19.8 +18.2 91 +36  1009.4  0.3  755  279           
03 02.07.10 040 (СВ) 10 км    8/1 1000 м средняя, верхняя 
[Sc|Ac trans|Cc]
+19.2 +17.7 91 +35  1009.6  0.2  755  280           
Время (UTC), дата Ветер
(°,м/с) 
Видим.   Явления Облачность Т
(°С)
Тd
(°С)
f(%) Тe
(°С)
Pmin
(гПа)
dP
(гПа)
Po
(мм)
O2
(г/м3)
Тmin Tmax R s Состояние
почвы